Location: Dreilärchen
(47.9312°N, 8.6113°E)
Time: 21:33:28
(UTC+00:00)

SAR-Lupe-2 - Pass Details

Date: 26 May 2022
Orbit: 480 x 482 km, 98.1° (Epoch: 30 June)

Event Time Altitude Azimuth Distance (km) Brightness Sun altitude
Rises 01:06:18 0° 20° (NNE) 2,554 9.0 -17.2°
Reaches altitude 10° 01:08:28 10° 29° (NNE) 1,669 7.6 -17.0°
Maximum altitude 01:11:52 39° 99° (E) 738 4.6 -16.7°
Enters shadow 01:13:34 23° 154° (SSE) 1,057 4.9 -16.6°
